28.03.2024;10:00;13,20
28.03.2024;09:45;13,36
28.03.2024;09:30;14,22
28.03.2024;09:15;12,71
28.03.2024;09:00;12,74
28.03.2024;08:45;12,74
28.03.2024;08:30;12,74
28.03.2024;08:15;12,71
28.03.2024;08:00;12,74
28.03.2024;07:45;12,74
28.03.2024;07:30;12,71
28.03.2024;07:15;12,74
28.03.2024;07:00;12,74
28.03.2024;06:45;12,74
28.03.2024;06:30;12,74
28.03.2024;06:15;12,71
28.03.2024;06:00;12,74
28.03.2024;05:45;12,74
28.03.2024;05:30;12,74
28.03.2024;05:15;12,71
28.03.2024;05:00;12,74
28.03.2024;04:45;12,74
28.03.2024;04:30;12,74
28.03.2024;04:15;12,71
28.03.2024;04:00;12,74
28.03.2024;03:45;12,74
28.03.2024;03:30;12,74
28.03.2024;03:15;12,71
28.03.2024;03:00;12,74
28.03.2024;02:45;12,74
28.03.2024;02:30;12,71
28.03.2024;02:15;12,71
28.03.2024;02:00;12,74
28.03.2024;01:45;12,74
28.03.2024;01:30;12,74
28.03.2024;01:15;12,71
28.03.2024;01:00;12,74
28.03.2024;00:45;12,74
28.03.2024;00:30;12,74
28.03.2024;00:15;12,71
28.03.2024;00:00;12,74
27.03.2024;23:45;12,74
27.03.2024;23:30;12,71
27.03.2024;23:15;12,71
27.03.2024;23:00;12,74
27.03.2024;22:45;12,74
27.03.2024;22:30;12,74
27.03.2024;22:15;12,71
27.03.2024;22:00;12,74
27.03.2024;21:45;12,74
27.03.2024;21:30;12,71
27.03.2024;21:15;12,71
27.03.2024;21:00;12,71
27.03.2024;20:45;12,74
27.03.2024;20:30;12,71
27.03.2024;20:15;12,71
27.03.2024;20:00;12,71
27.03.2024;19:45;12,71
27.03.2024;19:30;12,71
27.03.2024;19:15;12,71
27.03.2024;19:00;12,71
27.03.2024;18:45;12,71
27.03.2024;18:30;12,71
27.03.2024;18:15;12,71
27.03.2024;18:00;12,71
27.03.2024;17:45;12,71
27.03.2024;17:30;12,71
27.03.2024;17:15;12,71
27.03.2024;17:00;12,71
27.03.2024;16:45;12,71
27.03.2024;16:30;12,71
27.03.2024;16:15;12,71
27.03.2024;16:00;12,71
27.03.2024;15:45;12,71
27.03.2024;15:30;12,71
27.03.2024;15:15;12,71
27.03.2024;15:00;12,71
27.03.2024;14:45;12,71
27.03.2024;14:30;12,71
27.03.2024;14:15;12,71
27.03.2024;14:00;12,71
27.03.2024;13:45;12,71
27.03.2024;13:30;12,71
27.03.2024;13:15;12,71
27.03.2024;13:00;12,71
27.03.2024;12:45;12,71
27.03.2024;12:30;12,71
27.03.2024;12:15;12,71
27.03.2024;12:00;12,71
27.03.2024;11:45;12,71
27.03.2024;11:30;12,71
27.03.2024;11:15;12,71
27.03.2024;11:00;12,71
27.03.2024;10:45;12,71
27.03.2024;10:30;12,68
27.03.2024;10:15;14,22
27.03.2024;10:00;12,74
27.03.2024;09:45;12,74
27.03.2024;09:30;12,71
27.03.2024;09:15;12,71
27.03.2024;09:00;12,71
27.03.2024;08:45;12,71
27.03.2024;08:30;12,71
27.03.2024;08:15;12,71
27.03.2024;08:00;12,71
27.03.2024;07:45;12,71
27.03.2024;07:30;12,71
27.03.2024;07:15;12,71
27.03.2024;07:00;12,71
27.03.2024;06:45;12,71
27.03.2024;06:30;12,71
27.03.2024;06:15;12,71
27.03.2024;06:00;12,71
27.03.2024;05:45;12,71
27.03.2024;05:30;12,71
27.03.2024;05:15;12,71
27.03.2024;05:00;12,71
27.03.2024;04:45;12,71
27.03.2024;04:30;12,71
27.03.2024;04:15;12,71
27.03.2024;04:00;12,71
27.03.2024;03:45;12,71
27.03.2024;03:30;12,71
27.03.2024;03:15;12,71
27.03.2024;03:00;12,71
27.03.2024;02:45;12,71
27.03.2024;02:30;12,71
27.03.2024;02:15;12,71
27.03.2024;02:00;12,71
27.03.2024;01:45;12,71
27.03.2024;01:30;12,71
27.03.2024;01:15;12,71
27.03.2024;01:00;12,74
27.03.2024;00:45;12,71
27.03.2024;00:30;12,71
27.03.2024;00:15;12,71
27.03.2024;00:00;12,71
26.03.2024;23:45;12,74
26.03.2024;23:30;12,71
26.03.2024;23:15;12,71
26.03.2024;23:00;12,71
26.03.2024;22:45;12,74
26.03.2024;22:30;12,71
26.03.2024;22:15;12,71
26.03.2024;22:00;12,71
26.03.2024;21:45;12,71
26.03.2024;21:30;12,71
26.03.2024;21:15;12,71
26.03.2024;21:00;12,71
26.03.2024;20:45;12,71
26.03.2024;20:30;12,71
26.03.2024;20:15;12,71
26.03.2024;20:00;12,71
26.03.2024;19:45;12,71
26.03.2024;19:30;12,71
26.03.2024;19:15;12,71
26.03.2024;19:00;12,71
26.03.2024;18:45;12,71
26.03.2024;18:30;12,71
26.03.2024;18:15;12,71
26.03.2024;18:00;12,71
26.03.2024;17:45;12,71
26.03.2024;17:30;12,71
26.03.2024;17:15;12,71
26.03.2024;17:00;12,71
26.03.2024;16:45;12,71
26.03.2024;16:30;12,71
26.03.2024;16:15;12,71
26.03.2024;16:00;12,71
26.03.2024;15:45;12,71
26.03.2024;15:30;12,71
26.03.2024;15:15;12,71
26.03.2024;15:00;12,71
26.03.2024;14:45;12,71
26.03.2024;14:30;12,71
26.03.2024;14:15;12,71
26.03.2024;14:00;12,71
26.03.2024;13:45;12,71
26.03.2024;13:30;12,71
26.03.2024;13:15;12,71
26.03.2024;13:00;12,71
26.03.2024;12:45;12,71
26.03.2024;12:30;12,71
26.03.2024;12:15;12,71
26.03.2024;12:00;12,71
26.03.2024;11:45;12,71
26.03.2024;11:30;12,71
26.03.2024;11:15;12,71
26.03.2024;11:00;12,71
26.03.2024;10:45;12,71
26.03.2024;10:30;12,65
26.03.2024;10:15;12,65
26.03.2024;10:00;12,74
26.03.2024;09:45;12,74
26.03.2024;09:30;12,74
26.03.2024;09:15;12,74
26.03.2024;09:00;12,71
26.03.2024;08:45;12,71
26.03.2024;08:30;12,71
26.03.2024;08:15;12,71
26.03.2024;08:00;12,71
26.03.2024;07:45;12,71
26.03.2024;07:30;12,71
26.03.2024;07:15;12,71
26.03.2024;07:00;12,71
26.03.2024;06:45;12,71
26.03.2024;06:30;12,71
26.03.2024;06:15;12,71
26.03.2024;06:00;12,71
26.03.2024;05:45;12,71
26.03.2024;05:30;12,71
26.03.2024;05:15;12,71
26.03.2024;05:00;12,71
26.03.2024;04:45;12,71
26.03.2024;04:30;12,71
26.03.2024;04:15;12,71
26.03.2024;04:00;12,71
26.03.2024;03:45;12,71
26.03.2024;03:30;12,71
26.03.2024;03:15;12,71
26.03.2024;03:00;12,71
26.03.2024;02:45;12,71
26.03.2024;02:30;12,71
26.03.2024;02:15;12,71
26.03.2024;02:00;12,71
26.03.2024;01:45;12,71
26.03.2024;01:30;12,71
26.03.2024;01:15;12,71
26.03.2024;01:00;12,71
26.03.2024;00:45;12,74
26.03.2024;00:30;12,71
26.03.2024;00:15;12,71
26.03.2024;00:00;12,74
25.03.2024;23:45;12,71
25.03.2024;23:30;12,71
25.03.2024;23:15;12,71
25.03.2024;23:00;12,74
25.03.2024;22:45;12,74
25.03.2024;22:30;12,74
25.03.2024;22:15;12,71
25.03.2024;22:00;12,74
25.03.2024;21:45;12,71
25.03.2024;21:30;12,71
25.03.2024;21:15;12,71
25.03.2024;21:00;12,71
25.03.2024;20:45;12,74
25.03.2024;20:30;12,71
25.03.2024;20:15;12,71
25.03.2024;20:00;12,74
25.03.2024;19:45;12,74
25.03.2024;19:30;12,71
25.03.2024;19:15;12,71
25.03.2024;19:00;12,71
25.03.2024;18:45;12,74
25.03.2024;18:30;12,71
25.03.2024;18:15;12,71
25.03.2024;18:00;12,74
25.03.2024;17:45;12,74
25.03.2024;17:30;12,71
25.03.2024;17:15;12,71
25.03.2024;17:00;12,74
25.03.2024;16:45;12,71
25.03.2024;16:30;12,71
25.03.2024;16:15;12,71
25.03.2024;16:00;12,74
25.03.2024;15:45;12,74
25.03.2024;15:30;12,71
25.03.2024;15:15;12,71
25.03.2024;15:00;12,74
25.03.2024;14:45;12,74
25.03.2024;14:30;12,71
25.03.2024;14:15;12,71
25.03.2024;14:00;12,74
25.03.2024;13:45;12,71
25.03.2024;13:30;12,71
25.03.2024;13:15;12,71
25.03.2024;13:00;12,71
25.03.2024;12:45;12,71
25.03.2024;12:30;12,71
25.03.2024;12:15;12,71
25.03.2024;12:00;12,71
25.03.2024;11:45;12,71
25.03.2024;11:30;12,71
25.03.2024;11:15;12,71
25.03.2024;11:00;12,71
25.03.2024;10:45;12,71
25.03.2024;10:30;12,68
25.03.2024;10:15;12,65
25.03.2024;10:00;12,74
25.03.2024;09:45;12,74
25.03.2024;09:30;12,74
25.03.2024;09:15;12,74
25.03.2024;09:00;12,74
25.03.2024;08:45;12,74
25.03.2024;08:30;12,74
25.03.2024;08:15;12,74
25.03.2024;08:00;12,77
25.03.2024;07:45;12,77
25.03.2024;07:30;12,74
25.03.2024;07:15;12,74
25.03.2024;07:00;12,74
25.03.2024;06:45;12,74
25.03.2024;06:30;12,74
25.03.2024;06:15;12,71
25.03.2024;06:00;12,74
25.03.2024;05:45;12,74
25.03.2024;05:30;12,74
25.03.2024;05:15;12,74
25.03.2024;05:00;12,74
25.03.2024;04:45;12,74
25.03.2024;04:30;12,74
25.03.2024;04:15;12,74
25.03.2024;04:00;12,74
25.03.2024;03:45;12,74
25.03.2024;03:30;12,74
25.03.2024;03:15;12,74
25.03.2024;03:00;12,74
25.03.2024;02:45;12,74
25.03.2024;02:30;12,74
25.03.2024;02:15;12,74
25.03.2024;02:00;12,74
25.03.2024;01:45;12,74
25.03.2024;01:30;12,74
25.03.2024;01:15;12,74
25.03.2024;01:00;12,74
25.03.2024;00:45;12,74
25.03.2024;00:30;12,74
25.03.2024;00:15;12,74
25.03.2024;00:00;12,74
24.03.2024;23:45;12,74
24.03.2024;23:30;12,74
24.03.2024;23:15;12,74
24.03.2024;23:00;12,74
24.03.2024;22:45;12,74
24.03.2024;22:30;12,74
24.03.2024;22:15;12,74
24.03.2024;22:00;12,77
24.03.2024;21:45;12,74
24.03.2024;21:30;12,77
24.03.2024;21:15;12,74
24.03.2024;21:00;12,77
24.03.2024;20:45;12,77
24.03.2024;20:30;12,77
24.03.2024;20:15;12,77
24.03.2024;20:00;12,77
24.03.2024;19:45;12,77
24.03.2024;19:30;12,77
24.03.2024;19:15;12,77
24.03.2024;19:00;12,77
24.03.2024;18:45;12,77
24.03.2024;18:30;12,77
24.03.2024;18:15;12,77
24.03.2024;18:00;12,77
24.03.2024;17:45;12,77
24.03.2024;17:30;12,77
24.03.2024;17:15;12,77
24.03.2024;17:00;12,77
24.03.2024;16:45;12,77
24.03.2024;16:30;12,77
24.03.2024;16:15;12,77
24.03.2024;16:00;12,80
24.03.2024;15:45;12,80
24.03.2024;15:30;12,80
24.03.2024;15:15;12,77
24.03.2024;15:00;12,80
24.03.2024;14:45;12,80
24.03.2024;14:30;12,80
24.03.2024;14:15;12,80
24.03.2024;14:00;12,80
24.03.2024;13:45;12,80
24.03.2024;13:30;12,80
24.03.2024;13:15;12,80
24.03.2024;13:00;12,80
24.03.2024;12:45;12,80
24.03.2024;12:30;12,80
24.03.2024;12:15;12,80
24.03.2024;12:00;12,80
24.03.2024;11:45;12,80
24.03.2024;11:30;12,83
24.03.2024;11:15;12,80
24.03.2024;11:00;12,80
24.03.2024;10:45;12,80
24.03.2024;10:30;12,77
24.03.2024;10:15;12,83
24.03.2024;10:00;12,93
24.03.2024;09:45;12,96
24.03.2024;09:30;12,96
24.03.2024;09:15;12,96
24.03.2024;09:00;13,02
24.03.2024;08:45;13,05
24.03.2024;08:30;13,11
24.03.2024;08:15;13,23
24.03.2024;08:00;12,74
24.03.2024;07:45;12,74
24.03.2024;07:30;12,74
24.03.2024;07:15;12,74
24.03.2024;07:00;12,74
24.03.2024;06:45;12,74
24.03.2024;06:30;12,74
24.03.2024;06:15;12,74
24.03.2024;06:00;12,74
24.03.2024;05:45;12,74
24.03.2024;05:30;12,74
24.03.2024;05:15;12,74
24.03.2024;05:00;12,74
24.03.2024;04:45;12,74
24.03.2024;04:30;12,74
24.03.2024;04:15;12,74
24.03.2024;04:00;12,77
24.03.2024;03:45;12,77
24.03.2024;03:30;12,74
24.03.2024;03:15;12,74
24.03.2024;03:00;12,77
24.03.2024;02:45;12,74
24.03.2024;02:30;12,74
24.03.2024;02:15;12,74
24.03.2024;02:00;12,77
24.03.2024;01:45;12,77
24.03.2024;01:30;12,77
24.03.2024;01:15;12,74
24.03.2024;01:00;12,77
24.03.2024;00:45;12,77
24.03.2024;00:30;12,77
24.03.2024;00:15;12,74
24.03.2024;00:00;12,77
23.03.2024;23:45;12,77
23.03.2024;23:30;12,77
23.03.2024;23:15;12,77
23.03.2024;23:00;12,77
23.03.2024;22:45;12,77
23.03.2024;22:30;12,77
23.03.2024;22:15;12,77
23.03.2024;22:00;12,77
23.03.2024;21:45;12,77
23.03.2024;21:30;12,77
23.03.2024;21:15;12,77
23.03.2024;21:00;12,77
23.03.2024;20:45;12,77
23.03.2024;20:30;12,77
23.03.2024;20:15;12,77
23.03.2024;20:00;12,77
23.03.2024;19:45;12,77
23.03.2024;19:30;12,77
23.03.2024;19:15;12,77
23.03.2024;19:00;12,77
23.03.2024;18:45;12,77
23.03.2024;18:30;12,77
23.03.2024;18:15;12,77
23.03.2024;18:00;12,80
23.03.2024;17:45;12,80
23.03.2024;17:30;12,77
23.03.2024;17:15;12,77
23.03.2024;17:00;12,80
23.03.2024;16:45;12,80
23.03.2024;16:30;12,80
23.03.2024;16:15;12,80
23.03.2024;16:00;12,80
23.03.2024;15:45;12,80
23.03.2024;15:30;12,80
23.03.2024;15:15;12,80
23.03.2024;15:00;12,80
23.03.2024;14:45;12,80
23.03.2024;14:30;12,80
23.03.2024;14:15;12,80
23.03.2024;14:00;12,80
23.03.2024;13:45;12,80
23.03.2024;13:30;12,80
23.03.2024;13:15;12,80
23.03.2024;13:00;12,80
23.03.2024;12:45;12,80
23.03.2024;12:30;12,83
23.03.2024;12:15;12,80
23.03.2024;12:00;12,83
23.03.2024;11:45;12,83
23.03.2024;11:30;12,83
23.03.2024;11:15;12,83
23.03.2024;11:00;12,83
23.03.2024;10:45;12,83
23.03.2024;10:30;12,80
23.03.2024;10:15;12,83
23.03.2024;10:00;12,96
23.03.2024;09:45;12,96
23.03.2024;09:30;12,99
23.03.2024;09:15;13,05
23.03.2024;09:00;13,11
23.03.2024;08:45;13,20
23.03.2024;08:30;14,22
23.03.2024;08:15;12,74
23.03.2024;08:00;12,74
23.03.2024;07:45;12,74
23.03.2024;07:30;12,74
23.03.2024;07:15;12,74
23.03.2024;07:00;12,74
23.03.2024;06:45;12,74
23.03.2024;06:30;12,74
23.03.2024;06:15;12,74
23.03.2024;06:00;12,74
23.03.2024;05:45;12,74
23.03.2024;05:30;12,74
23.03.2024;05:15;12,74
23.03.2024;05:00;12,74
23.03.2024;04:45;12,74
23.03.2024;04:30;12,74
23.03.2024;04:15;12,74
23.03.2024;04:00;12,77
23.03.2024;03:45;12,74
23.03.2024;03:30;12,74
23.03.2024;03:15;12,74
23.03.2024;03:00;12,77
23.03.2024;02:45;12,77
23.03.2024;02:30;12,74
23.03.2024;02:15;12,74
23.03.2024;02:00;12,77
23.03.2024;01:45;12,74
23.03.2024;01:30;12,77
23.03.2024;01:15;12,74
23.03.2024;01:00;12,77
23.03.2024;00:45;12,77
23.03.2024;00:30;12,77
23.03.2024;00:15;12,74
23.03.2024;00:00;12,77
22.03.2024;23:45;12,77
22.03.2024;23:30;12,77
22.03.2024;23:15;12,77
22.03.2024;23:00;12,77
22.03.2024;22:45;12,77
22.03.2024;22:30;12,77
22.03.2024;22:15;12,77
22.03.2024;22:00;12,77
22.03.2024;21:45;12,77
22.03.2024;21:30;12,77
22.03.2024;21:15;12,77
22.03.2024;21:00;12,77
22.03.2024;20:45;12,77
22.03.2024;20:30;12,77
22.03.2024;20:15;12,77
22.03.2024;20:00;12,77
22.03.2024;19:45;12,77
22.03.2024;19:30;12,77
22.03.2024;19:15;12,77
22.03.2024;19:00;12,80
22.03.2024;18:45;12,77
22.03.2024;18:30;12,77
22.03.2024;18:15;12,77
22.03.2024;18:00;12,80
22.03.2024;17:45;12,80
22.03.2024;17:30;12,80
22.03.2024;17:15;12,80
22.03.2024;17:00;12,80
22.03.2024;16:45;12,80
22.03.2024;16:30;12,80
22.03.2024;16:15;12,80
22.03.2024;16:00;12,80
22.03.2024;15:45;12,80
22.03.2024;15:30;12,80
22.03.2024;15:15;12,80
22.03.2024;15:00;12,80
22.03.2024;14:45;12,80
22.03.2024;14:30;12,80
22.03.2024;14:15;12,80
22.03.2024;14:00;12,80
22.03.2024;13:45;12,83
22.03.2024;13:30;12,80
22.03.2024;13:15;12,80
22.03.2024;13:00;12,83
22.03.2024;12:45;12,83
22.03.2024;12:30;12,83
22.03.2024;12:15;12,83
22.03.2024;12:00;12,83
22.03.2024;11:45;12,83
22.03.2024;11:30;12,83
22.03.2024;11:15;12,83
22.03.2024;11:00;12,83
22.03.2024;10:45;12,83
22.03.2024;10:30;12,80
22.03.2024;10:15;12,89
22.03.2024;10:00;12,99
22.03.2024;09:45;13,05
22.03.2024;09:30;13,08
22.03.2024;09:15;13,20
22.03.2024;09:00;14,25
22.03.2024;08:45;12,74
22.03.2024;08:30;12,74
22.03.2024;08:15;12,74
22.03.2024;08:00;12,77
22.03.2024;07:45;12,74
22.03.2024;07:30;12,77
22.03.2024;07:15;12,74
22.03.2024;07:00;12,77
22.03.2024;06:45;12,77
22.03.2024;06:30;12,77
22.03.2024;06:15;12,77
22.03.2024;06:00;12,77
22.03.2024;05:45;12,77
22.03.2024;05:30;12,77
22.03.2024;05:15;12,77
22.03.2024;05:00;12,77
22.03.2024;04:45;12,77
22.03.2024;04:30;12,77
22.03.2024;04:15;12,77
22.03.2024;04:00;12,77
22.03.2024;03:45;12,77
22.03.2024;03:30;12,77
22.03.2024;03:15;12,77
22.03.2024;03:00;12,77
22.03.2024;02:45;12,77
22.03.2024;02:30;12,77
22.03.2024;02:15;12,77
22.03.2024;02:00;12,77
22.03.2024;01:45;12,77
22.03.2024;01:30;12,77
22.03.2024;01:15;12,77
22.03.2024;01:00;12,77
22.03.2024;00:45;12,77
22.03.2024;00:30;12,77
22.03.2024;00:15;12,77
22.03.2024;00:00;12,80
21.03.2024;23:45;12,80
21.03.2024;23:30;12,80
21.03.2024;23:15;12,77
21.03.2024;23:00;12,80
21.03.2024;22:45;12,80
21.03.2024;22:30;12,80
21.03.2024;22:15;12,77
21.03.2024;22:00;12,80
21.03.2024;21:45;12,80
21.03.2024;21:30;12,80
21.03.2024;21:15;12,80
21.03.2024;21:00;12,80
21.03.2024;20:45;12,80
21.03.2024;20:30;12,80
21.03.2024;20:15;12,80
21.03.2024;20:00;12,80
21.03.2024;19:45;12,80
21.03.2024;19:30;12,80
21.03.2024;19:15;12,80
21.03.2024;19:00;12,80
21.03.2024;18:45;12,80
21.03.2024;18:30;12,80
21.03.2024;18:15;12,80
21.03.2024;18:00;12,80
21.03.2024;17:45;12,80
21.03.2024;17:30;12,80
21.03.2024;17:15;12,80
21.03.2024;17:00;12,80
21.03.2024;16:45;12,80
21.03.2024;16:30;12,80
21.03.2024;16:15;12,80
21.03.2024;16:00;12,80
21.03.2024;15:45;12,80
21.03.2024;15:30;12,80
21.03.2024;15:15;12,80
21.03.2024;15:00;12,83
21.03.2024;14:45;12,83
21.03.2024;14:30;12,83
21.03.2024;14:15;12,83
21.03.2024;14:00;12,83
21.03.2024;13:45;12,83
21.03.2024;13:30;12,83
21.03.2024;13:15;12,83
21.03.2024;13:00;12,83
21.03.2024;12:45;12,83
21.03.2024;12:30;12,83
21.03.2024;12:15;12,83
21.03.2024;12:00;12,86
21.03.2024;11:45;12,86
21.03.2024;11:30;12,86
21.03.2024;11:15;12,86
21.03.2024;11:00;12,89
21.03.2024;10:45;12,89
21.03.2024;10:30;12,86
21.03.2024;10:15;12,96
21.03.2024;10:00;13,11
21.03.2024;09:45;13,20
21.03.2024;09:30;14,22
21.03.2024;09:15;12,74
21.03.2024;09:00;12,77
21.03.2024;08:45;12,77
21.03.2024;08:30;12,74
21.03.2024;08:15;12,74
21.03.2024;08:00;12,77
21.03.2024;07:45;12,77
21.03.2024;07:30;12,77
21.03.2024;07:15;12,74
21.03.2024;07:00;12,77
21.03.2024;06:45;12,77
21.03.2024;06:30;12,77
21.03.2024;06:15;12,77
21.03.2024;06:00;12,77
21.03.2024;05:45;12,77
21.03.2024;05:30;12,77
21.03.2024;05:15;12,77
21.03.2024;05:00;12,77
21.03.2024;04:45;12,77
21.03.2024;04:30;12,77
21.03.2024;04:15;12,77
21.03.2024;04:00;12,77
21.03.2024;03:45;12,77
21.03.2024;03:30;12,77
21.03.2024;03:15;12,77
21.03.2024;03:00;12,77
21.03.2024;02:45;12,77
21.03.2024;02:30;12,77
21.03.2024;02:15;12,77
21.03.2024;02:00;12,77
21.03.2024;01:45;12,77
21.03.2024;01:30;12,77
21.03.2024;01:15;12,77
21.03.2024;01:00;12,77
21.03.2024;00:45;12,80
21.03.2024;00:30;12,77
21.03.2024;00:15;12,77
21.03.2024;00:00;12,80
20.03.2024;23:45;12,80
20.03.2024;23:30;12,80
20.03.2024;23:15;12,80
20.03.2024;23:00;12,80
20.03.2024;22:45;12,80
20.03.2024;22:30;12,80
20.03.2024;22:15;12,80
20.03.2024;22:00;12,80
20.03.2024;21:45;12,80
20.03.2024;21:30;12,80
20.03.2024;21:15;12,80
20.03.2024;21:00;12,80
20.03.2024;20:45;12,80
20.03.2024;20:30;12,80
20.03.2024;20:15;12,80
20.03.2024;20:00;12,80
20.03.2024;19:45;12,80
20.03.2024;19:30;12,80
20.03.2024;19:15;12,80
20.03.2024;19:00;12,80
20.03.2024;18:45;12,80
20.03.2024;18:30;12,83
20.03.2024;18:15;12,83
20.03.2024;18:00;12,83
20.03.2024;17:45;12,83
20.03.2024;17:30;12,83
20.03.2024;17:15;12,83
20.03.2024;17:00;12,83
20.03.2024;16:45;12,83
20.03.2024;16:30;12,83
20.03.2024;16:15;12,83
20.03.2024;16:00;12,83
20.03.2024;15:45;12,83
20.03.2024;15:30;12,83
20.03.2024;15:15;12,83
20.03.2024;15:00;12,86
20.03.2024;14:45;12,86
20.03.2024;14:30;12,86
20.03.2024;14:15;12,86
20.03.2024;14:00;12,89
20.03.2024;13:45;12,89
20.03.2024;13:30;12,89
20.03.2024;13:15;12,93
20.03.2024;13:00;12,93
20.03.2024;12:45;12,93
20.03.2024;12:30;12,96
20.03.2024;12:15;12,96
20.03.2024;12:00;12,99
20.03.2024;11:45;12,99
20.03.2024;11:30;13,02
20.03.2024;11:15;13,08
20.03.2024;11:00;13,14
20.03.2024;10:45;13,23
20.03.2024;10:30;14,22
20.03.2024;10:15;12,65
20.03.2024;10:00;12,77
20.03.2024;09:45;12,74
20.03.2024;09:30;12,71
20.03.2024;09:15;12,71
20.03.2024;09:00;12,74
20.03.2024;08:45;12,74
20.03.2024;08:30;12,74
20.03.2024;08:15;12,71
20.03.2024;08:00;12,74
20.03.2024;07:45;12,74
20.03.2024;07:30;12,71
20.03.2024;07:15;12,71
20.03.2024;07:00;12,74
20.03.2024;06:45;12,74
20.03.2024;06:30;12,74
20.03.2024;06:15;12,71
20.03.2024;06:00;12,74
20.03.2024;05:45;12,74
20.03.2024;05:30;12,71
20.03.2024;05:15;12,71
20.03.2024;05:00;12,74
20.03.2024;04:45;12,74
20.03.2024;04:30;12,74
20.03.2024;04:15;12,71
20.03.2024;04:00;12,74
20.03.2024;03:45;12,71
20.03.2024;03:30;12,74
20.03.2024;03:15;12,71
20.03.2024;03:00;12,74
20.03.2024;02:45;12,74
20.03.2024;02:30;12,71
20.03.2024;02:15;12,71
20.03.2024;02:00;12,74
20.03.2024;01:45;12,71
20.03.2024;01:30;12,71
20.03.2024;01:15;12,71
20.03.2024;01:00;12,74
20.03.2024;00:45;12,74
20.03.2024;00:30;12,71
20.03.2024;00:15;12,71
20.03.2024;00:00;12,74
19.03.2024;23:45;12,74
19.03.2024;23:30;12,71
19.03.2024;23:15;12,71
19.03.2024;23:00;12,74
19.03.2024;22:45;12,74
19.03.2024;22:30;12,71
19.03.2024;22:15;12,71
19.03.2024;22:00;12,74
19.03.2024;21:45;12,71
19.03.2024;21:30;12,71
19.03.2024;21:15;12,71
19.03.2024;21:00;12,74
19.03.2024;20:45;12,74
19.03.2024;20:30;12,71
19.03.2024;20:15;12,71
19.03.2024;20:00;12,71
19.03.2024;19:45;12,71
19.03.2024;19:30;12,71
19.03.2024;19:15;12,71
19.03.2024;19:00;12,71
19.03.2024;18:45;12,71
19.03.2024;18:30;12,71
19.03.2024;18:15;12,71
19.03.2024;18:00;12,71
19.03.2024;17:45;12,71
19.03.2024;17:30;12,71
19.03.2024;17:15;12,71
19.03.2024;17:00;12,71
19.03.2024;16:45;12,71
19.03.2024;16:30;12,71
19.03.2024;16:15;12,71
19.03.2024;16:00;12,71
19.03.2024;15:45;12,71
19.03.2024;15:30;12,71
19.03.2024;15:15;12,71
19.03.2024;15:00;12,71
19.03.2024;14:45;12,71
19.03.2024;14:30;12,71
19.03.2024;14:15;12,71
19.03.2024;14:00;12,71
19.03.2024;13:45;12,71
19.03.2024;13:30;12,71
19.03.2024;13:15;12,71
19.03.2024;13:00;12,71
19.03.2024;12:45;12,71
19.03.2024;12:30;12,71
19.03.2024;12:15;12,71
19.03.2024;12:00;12,71
19.03.2024;11:45;12,71
19.03.2024;11:30;12,71
19.03.2024;11:15;12,71
19.03.2024;11:00;12,71
19.03.2024;10:45;12,71
19.03.2024;10:30;12,68
19.03.2024;10:15;12,68
19.03.2024;10:00;12,74
19.03.2024;09:45;12,74
19.03.2024;09:30;12,74
19.03.2024;09:15;12,71
19.03.2024;09:00;12,71
19.03.2024;08:45;12,71
19.03.2024;08:30;12,71
19.03.2024;08:15;12,71
19.03.2024;08:00;12,71
19.03.2024;07:45;12,71
19.03.2024;07:30;12,71
19.03.2024;07:15;12,71
19.03.2024;07:00;12,71
19.03.2024;06:45;12,71
19.03.2024;06:30;12,71
19.03.2024;06:15;12,71
19.03.2024;06:00;12,71
19.03.2024;05:45;12,74
19.03.2024;05:30;12,71
19.03.2024;05:15;12,71
19.03.2024;05:00;12,74
19.03.2024;04:45;12,74
19.03.2024;04:30;12,71
19.03.2024;04:15;12,71
19.03.2024;04:00;12,74
19.03.2024;03:45;12,71
19.03.2024;03:30;12,71
19.03.2024;03:15;12,71
19.03.2024;03:00;12,74
19.03.2024;02:45;12,74
19.03.2024;02:30;12,74
19.03.2024;02:15;12,71
19.03.2024;02:00;12,74
19.03.2024;01:45;12,74
19.03.2024;01:30;12,74
19.03.2024;01:15;12,71
19.03.2024;01:00;12,74
19.03.2024;00:45;12,74
19.03.2024;00:30;12,74
19.03.2024;00:15;12,71
19.03.2024;00:00;12,74
18.03.2024;23:45;12,74
18.03.2024;23:30;12,74
18.03.2024;23:15;12,71
18.03.2024;23:00;12,74
18.03.2024;22:45;12,74
18.03.2024;22:30;12,74
18.03.2024;22:15;12,71
18.03.2024;22:00;12,74
18.03.2024;21:45;12,74
18.03.2024;21:30;12,74
18.03.2024;21:15;12,71
18.03.2024;21:00;12,74
18.03.2024;20:45;12,74
18.03.2024;20:30;12,74
18.03.2024;20:15;12,71
18.03.2024;20:00;12,74
18.03.2024;19:45;12,74
18.03.2024;19:30;12,74
18.03.2024;19:15;12,71
18.03.2024;19:00;12,74
18.03.2024;18:45;12,74
18.03.2024;18:30;12,71
18.03.2024;18:15;12,71
18.03.2024;18:00;12,74
18.03.2024;17:45;12,71
18.03.2024;17:30;12,71
18.03.2024;17:15;12,71
18.03.2024;17:00;12,71
18.03.2024;16:45;12,71
18.03.2024;16:30;12,71
18.03.2024;16:15;12,71
18.03.2024;16:00;12,71
18.03.2024;15:45;12,71
18.03.2024;15:30;12,71
18.03.2024;15:15;12,71
18.03.2024;15:00;12,71
18.03.2024;14:45;12,71
18.03.2024;14:30;12,71
18.03.2024;14:15;12,71
18.03.2024;14:00;12,71
18.03.2024;13:45;12,71
18.03.2024;13:30;12,71
18.03.2024;13:15;12,71
18.03.2024;13:00;12,71
18.03.2024;12:45;12,71
18.03.2024;12:30;12,71
18.03.2024;12:15;12,71
18.03.2024;12:00;12,71
18.03.2024;11:45;12,71
18.03.2024;11:30;12,71
18.03.2024;11:15;12,71
18.03.2024;11:00;12,71
18.03.2024;10:45;12,71
18.03.2024;10:30;12,65
18.03.2024;10:15;12,65
18.03.2024;10:00;12,74
18.03.2024;09:45;12,74
18.03.2024;09:30;12,74
18.03.2024;09:15;12,74
18.03.2024;09:00;12,77
18.03.2024;08:45;12,74
18.03.2024;08:30;12,74
18.03.2024;08:15;12,74
18.03.2024;08:00;12,74
18.03.2024;07:45;12,74
18.03.2024;07:30;12,74
18.03.2024;07:15;12,74
18.03.2024;07:00;12,74
18.03.2024;06:45;12,74
18.03.2024;06:30;12,74
18.03.2024;06:15;12,74
18.03.2024;06:00;12,74
18.03.2024;05:45;12,74
18.03.2024;05:30;12,74
18.03.2024;05:15;12,74
18.03.2024;05:00;12,74
18.03.2024;04:45;12,74
18.03.2024;04:30;12,74
18.03.2024;04:15;12,74
18.03.2024;04:00;12,74
18.03.2024;03:45;12,74
18.03.2024;03:30;12,74
18.03.2024;03:15;12,74
18.03.2024;03:00;12,74
18.03.2024;02:45;12,74
18.03.2024;02:30;12,74
18.03.2024;02:15;12,74
18.03.2024;02:00;12,74
18.03.2024;01:45;12,74
18.03.2024;01:30;12,74
18.03.2024;01:15;12,74
18.03.2024;01:00;12,74
18.03.2024;00:45;12,74
18.03.2024;00:30;12,74
18.03.2024;00:15;12,74